Owatonna, Minnesota, United States (55060)
Lat: 44.08N, Lon: 93.23W
Wx Zone: MNZ085
Local Info
Past Weather Observations for Today

NOTE: This archive is for the closest National Weather Service station to Owatonna. Information may differ from the station used for current weather conditions.

Click here for Long-term Archive

Time Weather Temperature Dewpoint Humidity Pressure Winds Precip Visibility
10:55
Clear
61°F / 16°C 30°F / -1°C 31% 30.09 in
(1019 mb)
NW 12.7 mph
(NW 20 kph)
- 10SM
10:35
Clear
61°F / 16°C 30°F / -1°C 31% 30.09 in
(1019 mb)
NW 15 mph
(NW 24 kph)
- 10SM
10:15
Clear
59°F / 15°C 34°F / 1°C 39% 30.09 in
(1019 mb)
NW 17.3 mph
(NW 28 kph)
- 10SM
09:55
Clear
57°F / 14°C 36°F / 2°C 44% 30.09 in
(1019 mb)
NW 15 mph
(NW 24 kph)
- 10SM
09:35
Clear
57°F / 14°C 36°F / 2°C 44% 30.09 in
(1019 mb)
NW 13.8 mph
(NW 22 kph)
- 10SM
09:15
Clear
55°F / 13°C 37°F / 3°C 51% 30.06 in
(1018 mb)
WNW 10.4 mph
(WNW 17 kph)
- 10SM
08:55
Clear
55°F / 13°C 37°F / 3°C 51% 30.06 in
(1018 mb)
NW 11.5 mph
(NW 19 kph)
- 10SM
08:35
Clear
54°F / 12°C 37°F / 3°C 54% 30.06 in
(1018 mb)
NW 11.5 mph
(NW 19 kph)
- 10SM
08:15
Clear
54°F / 12°C 39°F / 4°C 58% 30.06 in
(1018 mb)
NW 6.9 mph
(NW 11 kph)
- 10SM
07:55
Clear
52°F / 11°C 39°F / 4°C 62% 30.06 in
(1018 mb)
W 6.9 mph
(W 11 kph)
- 10SM
07:35
Clear
50°F / 10°C 41°F / 5°C 71% 30.04 in
(1017 mb)
W 5.8 mph
(W 9 kph)
- 10SM
07:15
Clear
48°F / 9°C 41°F / 5°C 76% 30.04 in
(1017 mb)
SSW 4.6 mph
(SSW 7 kph)
- 10SM
06:55
Clear
48°F / 9°C 41°F / 5°C 76% 30.04 in
(1017 mb)
SSW 4.6 mph
(SSW 7 kph)
- 10SM
06:35
Clear
46°F / 8°C 39°F / 4°C 76% 30.04 in
(1017 mb)
SSW 3.5 mph
(SSW 6 kph)
- 10SM
06:15
Clear
45°F / 7°C 39°F / 4°C 81% 30.04 in
(1017 mb)
W 3.5 mph
(W 6 kph)
- 10SM
05:55
Clear
45°F / 7°C 37°F / 3°C 76% 30.01 in
(1016 mb)
Calm - 10SM
05:35
Clear
45°F / 7°C 37°F / 3°C 76% 30.01 in
(1016 mb)
W 3.5 mph
(W 6 kph)
- 10SM
05:15
Clear
45°F / 7°C 37°F / 3°C 76% 30.01 in
(1016 mb)
Calm - 10SM
04:55
Clear
45°F / 7°C 37°F / 3°C 76% 30.01 in
(1016 mb)
SSW 4.6 mph
(SSW 7 kph)
- 10SM
04:35
Clear
43°F / 6°C 37°F / 3°C 81% 30.01 in
(1016 mb)
SSW 3.5 mph
(SSW 6 kph)
- 10SM
04:15
Clear
43°F / 6°C 37°F / 3°C 81% 30.01 in
(1016 mb)
Calm - 10SM
03:55
Clear
45°F / 7°C 39°F / 4°C 81% 30.01 in
(1016 mb)
Calm - 10SM
03:35
Clear
45°F / 7°C 37°F / 3°C 76% 30.01 in
(1016 mb)
Calm - 10SM
03:15
Clear
46°F / 8°C 39°F / 4°C 76% 29.98 in
(1015 mb)
Calm - 10SM
02:55
Clear
46°F / 8°C 39°F / 4°C 76% 29.98 in
(1015 mb)
SSW 3.5 mph
(SSW 6 kph)
- 10SM
02:35
Clear
46°F / 8°C 39°F / 4°C 76% 29.98 in
(1015 mb)
SSW 4.6 mph
(SSW 7 kph)
- 10SM
02:15
Clear
43°F / 6°C 39°F / 4°C 87% 29.98 in
(1015 mb)
Calm - 10SM
01:55
Clear
48°F / 9°C 41°F / 5°C 76% 29.98 in
(1015 mb)
Calm - 10SM
01:35
Clear
46°F / 8°C 39°F / 4°C 76% 29.98 in
(1015 mb)
Calm - 10SM
01:15
Clear
46°F / 8°C 41°F / 5°C 82% 29.98 in
(1015 mb)
Calm - 10SM
00:55
Clear
48°F / 9°C 43°F / 6°C 82% 29.95 in
(1014 mb)
Calm - 10SM
00:35
Clear
50°F / 10°C 43°F / 6°C 76% 29.95 in
(1014 mb)
Calm - 10SM
00:15
Clear
52°F / 11°C 43°F / 6°C 72% 29.95 in
(1014 mb)
Calm - 10SM
Time Weather Temperature Dewpoint Humidity Pressure Winds Precip Visibility


Weather for websites

WeatherForYou.com, LLC is not responsible for any damages or problems caused by this service. Current weather conditions are obtained from the closest station including government and personal stations which may have varying degrees of accuracy. Weather forecasts are derived from the NOAA NDFD. Like all things, this site belongs to Jesus Christ... He just trusts me to maintain it. If you have any questions or comments email webmaster@weatherforyou.com

Copyright © 2014, WeatherForYou.com LLC. All rights reserved.